Time,TemperatureF,DewpointF,PressureIn,WindDirection,WindDirectionDegrees,WindSpeedMPH,WindSpeedGustMPH,Humidity,HourlyPrecipIn,Conditions,Clouds,dailyrainin,SoftwareType,DateUTC
2013-02-05 00:01:00,17.0,14.0,-100.00,South,190,12.0,15.0,89,0.00,,,0.01,,2013-02-05 06:01:00,
2013-02-05 00:11:00,18.0,16.0,-100.00,SSW,195,14.0,17.0,89,0.00,,,0.01,,2013-02-05 06:11:00,
2013-02-05 00:21:00,18.0,16.0,-100.00,South,190,13.0,18.0,88,0.00,,,0.01,,2013-02-05 06:21:00,
2013-02-05 00:32:00,19.0,16.0,-100.00,SSW,195,14.0,18.0,87,0.00,,,0.01,,2013-02-05 06:32:00,
2013-02-05 00:42:00,19.0,16.0,-100.00,SSW,195,12.0,16.0,87,0.00,,,0.01,,2013-02-05 06:42:00,
2013-02-05 00:51:00,20.0,16.0,-100.00,SSW,205,13.0,17.0,86,0.00,,,0.01,,2013-02-05 06:51:00,
2013-02-05 01:01:00,20.0,18.0,-100.00,SSW,205,13.0,17.0,86,0.00,,,0.01,,2013-02-05 07:01:00,
2013-02-05 01:11:00,21.0,18.0,-100.00,SSW,210,14.0,19.0,86,0.00,,,0.01,,2013-02-05 07:11:00,
2013-02-05 01:22:00,21.0,18.0,-100.00,SW,220,13.0,17.0,86,0.00,,,0.01,,2013-02-05 07:22:00,
2013-02-05 01:31:00,21.0,18.0,-100.00,SSW,210,13.0,17.0,86,0.00,,,0.01,,2013-02-05 07:31:00,
2013-02-05 01:41:00,21.0,18.0,-100.00,SW,215,14.0,16.0,86,0.00,,,0.01,,2013-02-05 07:41:00,
2013-02-05 01:51:00,21.0,18.0,-100.00,SSW,210,13.0,19.0,86,0.00,,,0.01,,2013-02-05 07:51:00,
2013-02-05 02:01:00,21.0,18.0,-100.00,SW,220,14.0,18.0,85,0.00,,,0.01,,2013-02-05 08:01:00,
2013-02-05 02:11:00,21.0,18.0,-100.00,SW,220,15.0,17.0,85,0.00,,,0.01,,2013-02-05 08:11:00,
2013-02-05 02:21:00,22.0,18.0,-100.00,SW,215,15.0,19.0,85,0.00,,,0.01,,2013-02-05 08:21:00,
2013-02-05 02:31:00,21.0,18.0,-100.00,SW,220,14.0,18.0,85,0.00,,,0.01,,2013-02-05 08:31:00,
2013-02-05 02:41:00,21.0,18.0,-100.00,SW,230,14.0,18.0,85,0.00,,,0.01,,2013-02-05 08:41:00,
2013-02-05 02:52:00,21.0,18.0,-100.00,SW,235,13.0,16.0,85,0.00,,,0.01,,2013-02-05 08:52:00,
2013-02-05 03:02:00,21.0,18.0,-100.00,SW,215,14.0,16.0,85,0.00,,,0.01,,2013-02-05 09:02:00,
2013-02-05 03:11:00,21.0,18.0,-100.00,SW,225,14.0,17.0,86,0.00,,,0.01,,2013-02-05 09:11:00,
2013-02-05 03:21:00,21.0,18.0,-100.00,SW,220,14.0,17.0,86,0.00,,,0.01,,2013-02-05 09:21:00,
2013-02-05 03:32:00,21.0,18.0,-100.00,SW,215,13.0,16.0,86,0.00,,,0.01,,2013-02-05 09:32:00,
2013-02-05 03:42:00,21.0,18.0,-100.00,SW,230,11.0,15.0,86,0.00,,,0.01,,2013-02-05 09:42:00,
2013-02-05 03:51:00,22.0,18.0,-100.00,SW,225,12.0,14.0,86,0.00,,,0.01,,2013-02-05 09:51:00,
2013-02-05 04:02:00,22.0,18.0,-100.00,SW,220,12.0,15.0,86,0.00,,,0.01,,2013-02-05 10:02:00,
2013-02-05 04:11:00,22.0,19.0,-100.00,SW,220,12.0,14.0,87,0.00,,,0.01,,2013-02-05 10:11:00,
2013-02-05 04:21:00,22.0,19.0,-100.00,SW,225,12.0,14.0,87,0.00,,,0.01,,2013-02-05 10:21:00,
2013-02-05 04:32:00,22.0,19.0,-100.00,WSW,245,9.0,13.0,87,0.00,,,0.01,,2013-02-05 10:32:00,
2013-02-05 04:42:00,23.0,19.0,-100.00,WSW,240,9.0,12.0,87,0.00,,,0.01,,2013-02-05 10:42:00,
2013-02-05 04:52:00,23.0,19.0,-100.00,SW,225,9.0,11.0,87,0.00,,,0.01,,2013-02-05 10:52:00,
2013-02-05 05:01:00,23.0,19.0,-100.00,SW,225,10.0,12.0,88,0.01,,,0.01,,2013-02-05 11:01:00,
2013-02-05 05:11:00,23.0,21.0,-100.00,SW,220,11.0,12.0,91,0.01,,,0.01,,2013-02-05 11:11:00,
2013-02-05 05:22:00,23.0,21.0,-100.00,SW,230,9.0,11.0,93,0.00,,,0.01,,2013-02-05 11:22:00,
2013-02-05 05:32:00,23.0,21.0,-100.00,SW,225,9.0,11.0,93,0.01,,,0.01,,2013-02-05 11:32:00,
2013-02-05 05:41:00,23.0,21.0,-100.00,SW,235,10.0,12.0,93,0.01,,,0.02,,2013-02-05 11:41:00,
2013-02-05 05:52:00,23.0,21.0,-100.00,SW,235,9.0,11.0,94,0.02,,,0.02,,2013-02-05 11:52:00,
2013-02-05 06:01:00,23.0,21.0,-100.00,SW,230,7.0,11.0,95,0.01,,,0.02,,2013-02-05 12:01:00,
2013-02-05 06:12:00,24.0,23.0,-100.00,WSW,240,9.0,12.0,95,0.01,,,0.02,,2013-02-05 12:12:00,
2013-02-05 06:21:00,24.0,23.0,-100.00,WSW,250,7.0,12.0,95,0.00,,,0.03,,2013-02-05 12:21:00,
2013-02-05 06:32:00,24.0,23.0,-100.00,WSW,245,10.0,13.0,96,0.04,,,0.03,,2013-02-05 12:32:00,
2013-02-05 06:42:00,24.0,23.0,-100.00,WSW,255,7.0,15.0,96,0.00,,,0.03,,2013-02-05 12:42:00,
2013-02-05 06:52:00,25.0,23.0,-100.00,WSW,250,7.0,12.0,96,0.01,,,0.03,,2013-02-05 12:52:00,
2013-02-05 07:01:00,25.0,25.0,-100.00,West,265,10.0,12.0,96,0.00,,,0.03,,2013-02-05 13:01:00,
2013-02-05 07:12:00,25.0,25.0,-100.00,West,275,9.0,12.0,96,0.00,,,0.03,,2013-02-05 13:12:00,
2013-02-05 07:21:00,25.0,25.0,-100.00,West,280,7.0,10.0,96,0.00,,,0.03,,2013-02-05 13:21:00,
2013-02-05 07:32:00,26.0,25.0,-100.00,West,275,7.0,10.0,97,0.00,,,0.03,,2013-02-05 13:32:00,
2013-02-05 07:42:00,26.0,25.0,-100.00,West,275,6.0,9.0,97,0.00,,,0.03,,2013-02-05 13:42:00,
2013-02-05 07:51:00,26.0,25.0,-100.00,West,270,4.0,7.0,97,0.00,,,0.03,,2013-02-05 13:51:00,
2013-02-05 08:01:00,26.0,25.0,-100.00,West,265,4.0,6.0,97,0.00,,,0.03,,2013-02-05 14:01:00,
2013-02-05 08:12:00,27.0,27.0,-100.00,West,265,5.0,6.0,97,0.00,,,0.03,,2013-02-05 14:12:00,
2013-02-05 08:21:00,27.0,27.0,-100.00,WNW,285,4.0,6.0,97,0.00,,,0.03,,2013-02-05 14:21:00,
2013-02-05 08:31:00,27.0,27.0,-100.00,WNW,300,5.0,6.0,97,0.00,,,0.03,,2013-02-05 14:31:00,
2013-02-05 08:42:00,28.0,27.0,-100.00,WNW,295,6.0,7.0,97,0.00,,,0.03,,2013-02-05 14:42:00,
2013-02-05 08:52:00,29.0,28.0,-100.00,WNW,290,7.0,11.0,96,0.00,,,0.03,,2013-02-05 14:52:00,
2013-02-05 09:01:00,29.0,28.0,-100.00,NW,310,11.0,15.0,95,0.00,,,0.03,,2013-02-05 15:01:00,
2013-02-05 09:11:00,29.0,28.0,-100.00,NW,315,9.0,15.0,94,0.00,,,0.03,,2013-02-05 15:11:00,
2013-02-05 09:21:00,30.0,27.0,-100.00,NW,310,11.0,14.0,90,0.00,,,0.03,,2013-02-05 15:21:00,
2013-02-05 09:32:00,30.0,27.0,-100.00,NW,310,11.0,14.0,87,0.00,,,0.03,,2013-02-05 15:32:00,
2013-02-05 09:41:00,31.0,27.0,-100.00,NW,310,11.0,16.0,86,0.00,,,0.03,,2013-02-05 15:41:00,
2013-02-05 09:52:00,30.0,25.0,-100.00,NW,315,17.0,26.0,82,0.00,,,0.03,,2013-02-05 15:52:00,
2013-02-05 10:01:00,30.0,25.0,-100.00,NNW,335,16.0,28.0,80,0.00,,,0.04,,2013-02-05 16:01:00,
2013-02-05 10:11:00,30.0,25.0,-100.00,NNW,335,12.0,17.0,82,0.00,,,0.04,,2013-02-05 16:11:00,
2013-02-05 10:22:00,30.0,25.0,-100.00,NNW,345,13.0,17.0,81,0.00,,,0.04,,2013-02-05 16:22:00,
2013-02-05 10:32:00,30.0,25.0,-100.00,NNW,330,12.0,21.0,81,0.00,,,0.04,,2013-02-05 16:32:00,
2013-02-05 10:42:00,30.0,25.0,-100.00,NW,325,16.0,24.0,81,0.00,,,0.04,,2013-02-05 16:42:00,
2013-02-05 10:52:00,30.0,25.0,-100.00,NNW,335,14.0,26.0,80,0.00,,,0.04,,2013-02-05 16:52:00,
2013-02-05 11:01:00,30.0,25.0,-100.00,NNW,340,13.0,16.0,80,0.00,,,0.04,,2013-02-05 17:01:00,
2013-02-05 11:11:00,29.0,25.0,-100.00,North,350,14.0,16.0,80,0.00,,,0.04,,2013-02-05 17:11:00,
2013-02-05 11:21:00,29.0,23.0,-100.00,North,350,13.0,17.0,77,0.00,,,0.04,,2013-02-05 17:21:00,
2013-02-05 11:32:00,29.0,23.0,-100.00,NNW,340,11.0,18.0,77,0.00,,,0.04,,2013-02-05 17:32:00,
2013-02-05 11:42:00,29.0,21.0,-100.00,NNW,330,14.0,16.0,74,0.00,,,0.04,,2013-02-05 17:42:00,
2013-02-05 11:52:00,30.0,23.0,-100.00,NNW,330,14.0,17.0,74,0.00,,,0.04,,2013-02-05 17:52:00,
2013-02-05 12:02:00,28.0,21.0,-100.00,North,350,16.0,18.0,76,0.00,,,0.04,,2013-02-05 18:02:00,
2013-02-05 12:11:00,28.0,21.0,-100.00,NNW,340,14.0,18.0,74,0.00,,,0.04,,2013-02-05 18:11:00,
2013-02-05 12:21:00,29.0,21.0,-100.00,NW,325,12.0,17.0,73,0.00,,,0.04,,2013-02-05 18:21:00,
2013-02-05 12:32:00,29.0,21.0,-100.00,NNW,330,12.0,16.0,74,0.00,,,0.04,,2013-02-05 18:32:00,
2013-02-05 12:42:00,28.0,21.0,-100.00,NNW,330,12.0,14.0,74,0.00,,,0.04,,2013-02-05 18:42:00,
2013-02-05 12:52:00,28.0,21.0,-100.00,NNW,330,13.0,16.0,77,0.00,,,0.04,,2013-02-05 18:52:00,
2013-02-05 13:02:00,27.0,21.0,-100.00,NNW,330,12.0,17.0,75,0.00,,,0.04,,2013-02-05 19:02:00,
2013-02-05 13:11:00,28.0,21.0,-100.00,NW,325,12.0,17.0,75,0.00,,,0.04,,2013-02-05 19:11:00,
2013-02-05 13:21:00,28.0,21.0,-100.00,NW,320,11.0,15.0,75,0.00,,,0.04,,2013-02-05 19:21:00,
2013-02-05 13:32:00,27.0,21.0,-100.00,NW,325,12.0,15.0,76,0.00,,,0.04,,2013-02-05 19:32:00,
2013-02-05 13:42:00,27.0,21.0,-100.00,NW,325,12.0,15.0,77,0.00,,,0.04,,2013-02-05 19:42:00,
2013-02-05 13:52:00,27.0,21.0,-100.00,NW,325,15.0,17.0,77,0.00,,,0.04,,2013-02-05 19:52:00,
2013-02-05 14:01:00,27.0,21.0,-100.00,NW,315,13.0,16.0,78,0.00,,,0.04,,2013-02-05 20:01:00,
2013-02-05 14:11:00,27.0,21.0,-100.00,NW,325,16.0,19.0,77,0.00,,,0.04,,2013-02-05 20:11:00,
2013-02-05 14:21:00,27.0,21.0,-100.00,NW,320,12.0,17.0,78,0.00,,,0.04,,2013-02-05 20:21:00,
2013-02-05 14:32:00,27.0,21.0,-100.00,NW,320,12.0,15.0,78,0.00,,,0.04,,2013-02-05 20:32:00,
2013-02-05 14:42:00,27.0,21.0,-100.00,NNW,330,11.0,17.0,78,0.00,,,0.04,,2013-02-05 20:42:00,
2013-02-05 14:52:00,27.0,21.0,-100.00,NNW,330,9.0,15.0,77,0.00,,,0.04,,2013-02-05 20:52:00,
2013-02-05 15:01:00,26.0,21.0,-100.00,NNW,335,15.0,17.0,79,0.00,,,0.04,,2013-02-05 21:01:00,
2013-02-05 15:11:00,26.0,21.0,-100.00,NW,325,14.0,17.0,79,0.00,,,0.04,,2013-02-05 21:11:00,
2013-02-05 15:21:00,25.0,19.0,-100.00,NW,315,12.0,16.0,79,0.00,,,0.05,,2013-02-05 21:21:00,
2013-02-05 15:32:00,25.0,19.0,-100.00,NW,320,12.0,15.0,79,0.00,,,0.05,,2013-02-05 21:32:00,
2013-02-05 15:42:00,25.0,19.0,-100.00,NW,325,10.0,16.0,78,0.00,,,0.05,,2013-02-05 21:42:00,
2013-02-05 15:51:00,25.0,19.0,-100.00,NW,325,9.0,12.0,78,0.00,,,0.05,,2013-02-05 21:51:00,
2013-02-05 16:01:00,25.0,18.0,-100.00,NW,325,11.0,14.0,76,0.00,,,0.05,,2013-02-05 22:01:00,
2013-02-05 16:11:00,25.0,18.0,-100.00,NW,315,12.0,14.0,76,0.00,,,0.05,,2013-02-05 22:11:00,
2013-02-05 16:21:00,24.0,18.0,-100.00,NW,325,12.0,15.0,76,0.00,,,0.05,,2013-02-05 22:21:00,
2013-02-05 16:32:00,24.0,18.0,-100.00,NW,315,11.0,14.0,76,0.00,,,0.05,,2013-02-05 22:32:00,
2013-02-05 16:42:00,24.0,18.0,-100.00,NW,305,11.0,14.0,76,0.00,,,0.05,,2013-02-05 22:42:00,
2013-02-05 16:51:00,24.0,18.0,-100.00,WNW,300,10.0,15.0,76,0.00,,,0.05,,2013-02-05 22:51:00,
2013-02-05 17:02:00,22.0,16.0,-100.00,WNW,290,11.0,14.0,76,0.00,,,0.05,,2013-02-05 23:02:00,
2013-02-05 17:11:00,22.0,16.0,-100.00,WNW,300,11.0,15.0,78,0.00,,,0.05,,2013-02-05 23:11:00,
2013-02-05 17:21:00,20.0,14.0,-100.00,WNW,285,11.0,13.0,79,0.00,,,0.05,,2013-02-05 23:21:00,
2013-02-05 17:32:00,20.0,14.0,-100.00,WNW,300,10.0,14.0,79,0.00,,,0.05,,2013-02-05 23:32:00,
2013-02-05 17:42:00,19.0,14.0,-100.00,WNW,295,11.0,12.0,79,0.00,,,0.05,,2013-02-05 23:42:00,
2013-02-05 17:52:00,18.0,12.0,-100.00,WNW,295,12.0,16.0,80,0.00,,,0.05,,2013-02-05 23:52:00,
2013-02-05 18:02:00,17.0,12.0,-100.00,WNW,290,13.0,19.0,80,0.00,,,0.05,,2013-02-06 00:02:00,
2013-02-05 18:11:00,16.0,10.0,-100.00,WNW,295,10.0,16.0,80,0.00,,,0.05,,2013-02-06 00:11:00,
2013-02-05 18:21:00,15.0,10.0,-100.00,WNW,285,11.0,13.0,81,0.00,,,0.05,,2013-02-06 00:21:00,
2013-02-05 18:32:00,15.0,10.0,-100.00,West,280,9.0,14.0,81,0.00,,,0.05,,2013-02-06 00:32:00,
2013-02-05 18:42:00,15.0,10.0,-100.00,West,275,8.0,12.0,81,0.00,,,0.05,,2013-02-06 00:42:00,
2013-02-05 18:52:00,13.0,9.0,-100.00,WNW,290,10.0,12.0,81,0.00,,,0.05,,2013-02-06 00:52:00,
2013-02-05 19:02:00,13.0,9.0,-100.00,WNW,295,11.0,12.0,81,0.00,,,0.05,,2013-02-06 01:02:00,
2013-02-05 19:11:00,13.0,9.0,-100.00,WNW,295,10.0,12.0,81,0.00,,,0.05,,2013-02-06 01:11:00,
2013-02-05 19:21:00,13.0,9.0,-100.00,NW,305,11.0,12.0,81,0.00,,,0.05,,2013-02-06 01:21:00,
2013-02-05 19:32:00,12.0,7.0,-100.00,NW,305,9.0,12.0,81,0.00,,,0.05,,2013-02-06 01:32:00,
2013-02-05 19:42:00,12.0,7.0,-100.00,WNW,300,11.0,13.0,81,0.00,,,0.05,,2013-02-06 01:42:00,
2013-02-05 19:52:00,11.0,7.0,-100.00,WNW,300,10.0,13.0,81,0.00,,,0.05,,2013-02-06 01:52:00,
2013-02-05 20:01:00,11.0,7.0,-100.00,WNW,295,9.0,12.0,81,0.00,,,0.05,,2013-02-06 02:01:00,
2013-02-05 20:11:00,10.0,5.0,-100.00,NW,305,9.0,11.0,80,0.00,,,0.05,,2013-02-06 02:11:00,
2013-02-05 20:22:00,10.0,5.0,-100.00,WNW,300,9.0,11.0,81,0.00,,,0.05,,2013-02-06 02:22:00,
2013-02-05 20:32:00,10.0,5.0,-100.00,WNW,300,7.0,11.0,81,0.00,,,0.05,,2013-02-06 02:32:00,
2013-02-05 20:42:00,10.0,5.0,-100.00,WNW,285,7.0,9.0,81,0.00,,,0.05,,2013-02-06 02:42:00,
2013-02-05 20:52:00,9.0,3.0,-100.00,WNW,295,6.0,8.0,81,0.00,,,0.05,,2013-02-06 02:52:00,
2013-02-05 21:02:00,8.0,3.0,-100.00,WNW,295,7.0,8.0,81,0.00,,,0.05,,2013-02-06 03:02:00,
2013-02-05 21:12:00,8.0,3.0,-100.00,WNW,285,6.0,8.0,81,0.00,,,0.05,,2013-02-06 03:12:00,
2013-02-05 21:22:00,8.0,3.0,-100.00,WNW,285,3.0,4.0,81,0.00,,,0.05,,2013-02-06 03:22:00,
2013-02-05 21:32:00,8.0,3.0,-100.00,NW,310,2.0,4.0,81,0.00,,,0.05,,2013-02-06 03:32:00,
2013-02-05 21:42:00,8.0,3.0,-100.00,WSW,240,0.0,2.0,82,0.00,,,0.05,,2013-02-06 03:42:00,
2013-02-05 21:52:00,7.0,3.0,-100.00,West,265,1.0,2.0,82,0.00,,,0.05,,2013-02-06 03:52:00,
2013-02-05 22:02:00,8.0,3.0,-100.00,SW,235,2.0,3.0,83,0.00,,,0.05,,2013-02-06 04:02:00,
2013-02-05 22:11:00,8.0,3.0,-100.00,SSW,200,3.0,4.0,83,0.00,,,0.05,,2013-02-06 04:11:00,
2013-02-05 22:21:00,7.0,3.0,-100.00,SSW,200,5.0,6.0,84,0.00,,,0.04,,2013-02-06 04:21:00,
2013-02-05 22:31:00,4.0,0.0,-100.00,SW,225,7.0,7.0,82,0.00,,,0.04,,2013-02-06 04:31:00,
2013-02-05 22:42:00,3.0,0.0,-100.00,SW,235,7.0,8.0,84,0.00,,,0.04,,2013-02-06 04:42:00,
2013-02-05 22:51:00,4.0,1.0,-100.00,WSW,245,2.0,7.0,84,0.00,,,0.04,,2013-02-06 04:51:00,
2013-02-05 23:01:00,5.0,1.0,-100.00,SW,220,2.0,3.0,85,0.00,,,0.04,,2013-02-06 05:01:00,
2013-02-05 23:12:00,-999.0,1.0,-100.00,SSW,210,1.0,3.0,85,0.00,,,0.04,,2013-02-06 05:12:00,
2013-02-05 23:22:00,5.0,1.0,-100.00,SW,215,4.0,6.0,86,0.00,,,0.04,,2013-02-06 05:22:00,
2013-02-05 23:31:00,3.0,0.0,-100.00,SW,230,6.0,6.0,83,0.00,,,0.04,,2013-02-06 05:31:00,
2013-02-05 23:41:00,5.0,1.0,-100.00,SW,225,6.0,7.0,85,0.00,,,0.04,,2013-02-06 05:41:00,
2013-02-05 23:52:00,3.0,0.0,-100.00,SW,230,9.0,9.0,84,0.00,,,0.04,,2013-02-06 05:52:00,